Tracking 18851 objects as of 25-Nov-2017
HD Live streaming from Space Station
objects crossing your sky now

GEOSAT

Track GEOSAT now!
10-day predictions
GEOSAT is classified as:


NORAD ID: 15595
Int'l Code: 1985-021A
Perigee: 771.0 km
Apogee: 773.2 km
Inclination: 108.0 °
Period: 100.1 minutes
Semi major axis: 7143 km
RCS: 9.5926 m2 (large)
Launch date: March 13, 1985
Source: United States (US)
Launch site: AIR FORCE WESTERN TEST RANGE (AFWTR)
aabbcc
Your satellite tracking list
Your tracking list is empty




NASA's NSSDC Master Catalog

Two Line Element Set (TLE):
1 15595U 85021A   17329.19071741 -.00000049  00000-0  28422-4 0  9999
2 15595 108.0362  69.8158 0001489 249.5108 168.1696 14.38050162713520
Source of the keplerian elements: AFSPC